Orbital Elements at Epoch 2459000.5 (2020-May-31.0) TDB
Reference: JPL 22 (heliocentric ecliptic J2000)
Element | Value | Uncertainty (1-sigma) | Units |
e | .2295959743117696 | 3.7569e-08 | |
a | 2.372894255955392 | 8.1048e-09 | au |
q | 1.828087287320513 | 9.1263e-08 | au |
i | 5.379728943413613 | 3.7082e-06 | deg |
node | 149.9760928119708 | 3.659e-05 | deg |
peri | 218.3518145167434 | 3.721e-05 | deg |
M | 257.1318034674287 | 7.7508e-06 | deg |
tp | 2459382.000076691531 (2021-Jun-16.50007669) | 2.9817e-05 | TDB |
period | 1335.106789448429 3.66 | 6.8403e-06 1.873e-08 | d yr |
n | .2696413521713319 | 1.3815e-09 | deg/d |
Q | 2.917701224590273 | 9.9657e-09 | au |
|
| | Orbit Determination Parameters
Additional Information
|